Regional Weather Roundup
Issued by NWS

Home | Current Version | Previous Version | Text Only | Print | Product List | Glossary On
Versions: 1 2 3 4 5 6 7 8 9 10 11 12 13 14 15 16 17 18 19 20 21 22 23 24 25 26 27 28 29 30 31 32 33 34 35 36 37 38 39 40 41 42 43 44 45 46 47 48 49 50
000
ASUS43 KMPX 012201
RWRMN
WEATHER ROUNDUP FOR MINNESOTA
NATIONAL WEATHER SERVICE TWIN CITIES/CHANHASSEN MN
500 PM CDT MON JUN 01 2015


NOTE: "FAIR" INDICATES FEW OR NO CLOUDS BELOW 12,000 FEET WITH NO
SIGNIFICANT WEATHER AND/OR OBSTRUCTIONS TO VISIBILITY. N/A MEANS
CURRENT SKY AND/OR WEATHER CONDITIONS ARE NOT AVAILABLE.

MNZ060>063-068>070-012300-
   Twin Cities Metro

CITY           SKY/WX    TMP DP  RH WIND       PRES   REMARKS
TWIN CITIES    PTSUNNY   68  36  30 SE10      30.16F
ST PAUL        MOSUNNY   67  42  40 S13       30.16F
CRYSTAL        MOSUNNY   70  36  28 S12       30.14F
BLAINE         PTSUNNY   70  37  30 SE8       30.15F
LAKEVILLE      MOSUNNY   70  36  28 SE8       30.15F
EDEN PRAIRIE   MOSUNNY   71  38  29 SE12G20   30.14F
SOUTH ST PAUL  MOSUNNY   68  36  30 S7        30.15F
LAKE ELMO      FAIR      66  43  42 SE10      30.17F
$$
MNZ001>005-007-008-013>017-022>024-027-028-012300-
   Northwest Minnesota

CITY           SKY/WX    TMP DP  RH WIND       PRES   REMARKS
BEMIDJI        PTSUNNY   67  44  43 S14G21    30.07F
HALLOCK        PTSUNNY   73  41  31 S29G36    29.94F
ROSEAU         MOSUNNY   70  45  40 S21       30.00F
WARROAD        MOSUNNY   66  48  52 S16G22    30.02F
THIEF RVR FALL CLOUDY    68  43  40 S20G25    30.01F
CROOKSTON      PTSUNNY   72  43  35 S22G30    29.99F
FOSSTON        PTSUNNY   66  45  45 SE13G22   30.03F
DETROIT LAKES  PTSUNNY   70  43  37 SE18G29   30.06F
MOORHEAD       PTSUNNY   72  45  37 S26       30.00F
PARK RAPIDS    CLOUDY    69  42  37 S16       30.08F
MAHNOMEN       CLOUDY    67  46  45 S14G25    30.03F
$$
MNZ006-009>011-018-025>026-012300-
   North Central Minnesota

CITY           SKY/WX    TMP DP  RH WIND       PRES   REMARKS
BAUDETTE       CLOUDY    67  40  37 S16       30.05F
FLAG ISLAND    PTSUNNY   63  48  59 S14       30.01F
INTL FALLS     PTSUNNY   70  34  26 S8        30.07F
WASKISH        PTSUNNY   66  43  42 S9        30.07F
BIG FORK       SUNNY     72  39  30 S10       30.10F
LONGVILLE      PTSUNNY   66  37  34 SE13      30.11F
GRAND RAPIDS   PTSUNNY   66  36  32 S13       30.12F
CRANE LAKE     SUNNY     70  34  26 S7        30.13F
COOK           MOSUNNY   68  37  32 SE12      30.13F
WALKER         FAIR      67  39  36 S17G23    30.09F
$$
MNZ012-019>021-037-012300-
   Northeast Minnesota

CITY           SKY/WX    TMP DP  RH WIND       PRES   REMARKS
DULUTH         SUNNY     59  35  40 E16       30.18F
ELY            SUNNY     66  30  26 S8G17     30.15F
HIBBING        PTSUNNY   68  39  34 S12G18    30.13F
EVELETH        SUNNY     66  37  34 S12G17    30.15F
DULUTH HARBOR  SUNNY     46  36  66 NE13      30.21F
TWO HARBORS    SUNNY     63  43  48 E9        30.18F
SILVER BAY     SUNNY     57  36  44 NE8       30.19F
GRAND MARAIS     N/A     49  28  44 NE5       30.23F
G MARAIS ARPRT SUNNY     57  16  19 SE5       30.23F
$$
MNZ029>031-032-039>041-046>048-054>057-064-012300-
   West Central Minnesota

CITY           SKY/WX    TMP DP  RH WIND       PRES   REMARKS
FERGUS FALLS   PTSUNNY   72  45  37 SE18G24   30.03F
WHEATON        MOSUNNY   73  46  38 SE15      30.02F
MORRIS         PTSUNNY   75  43  31 SE21G28   30.03F
ALEXANDRIA     PTSUNNY   68  43  40 SE22      30.10F
ELBOW LAKE     CLOUDY    72  46  40 S22       30.04F
WADENA         PTSUNNY   66  46  48 SE14G22   30.09S
GLENWOOD       MOSUNNY   70  45  40 SE18      30.10F
APPLETON       MOSUNNY   77  39  25 S14G22    30.03F
BENSON         MOSUNNY   73  39  29 S15G24    30.06F
ORTONVILLE     MOSUNNY   75  43  31 SE10G21   30.01F
MADISON        MOSUNNY   75  39  27 S16       30.02F
WILLMAR        FAIR      73  43  33 S7G20     30.10F
$$
MNZ033>034-036-042>043-049>051-058-059-012300-
   Central Minnesota

CITY           SKY/WX    TMP DP  RH WIND       PRES   REMARKS
ST CLOUD       PTSUNNY   69  38  32 S7        30.13F
SAUK CENTRE    FAIR      67  44  42 SE13G21   30.11F
PAYNESVILLE    SUNNY     66  42  41 E12       30.11F
AITKIN         MOSUNNY   66  32  28 S10G17    30.13S
PINE RIVER     PTSUNNY   66  39  37 S16       30.14F
BRAINERD       PTSUNNY   65  32  29 SE13      30.13F
STAPLES        CLOUDY    64  37  36 S13G18    30.11S
LONG PRAIRIE   PTSUNNY   64  43  45 SE16      30.12F
LITTLE FALLS   MOSUNNY   68  32  26 SE8       30.13S
LITCHFIELD     SUNNY     72  43  35 SE7G17    30.11F
BUFFALO        PTSUNNY   68  36  30 SE6       30.15F
MAPLE LAKE     MOSUNNY   70  42  36 SE8       30.14F
$$
MNZ037-044-045-052-053-012300-
   East Central Minnesota

CITY           SKY/WX    TMP DP  RH WIND       PRES   REMARKS
PRINCETON      PTSUNNY   70  36  28 SE9       30.14F
MORA           MOSUNNY   64  36  34 S10       30.17F
CAMBRIDGE      MOSUNNY   72  46  40 SE10      30.14F
RUSH CITY      MOSUNNY   68  39  35 SE10      30.17S
MOOSE LAKE     MOSUNNY   70  36  28 S8        30.14F
HINCKLEY       FAIR      68  39  34 SE10      30.16S
CLOQUET        SUNNY     59  37  44 E12       30.17F
MCGREGOR       MOSUNNY   68  34  28 S12G18    30.14F
$$
MNZ071>073-080-081-089-090-097-098-012300-
   Southwest Minnesota

CITY           SKY/WX    TMP DP  RH WIND       PRES   REMARKS
MONTEVIDEO     MOSUNNY   77  45  31 S12G24    30.05F
GRANITE FALLS  SUNNY     76  43  31 SE14G26   30.07F
CANBY          PTSUNNY   74  44  33 S14G22    30.04F
MARSHALL       MOSUNNY   75  43  31 S15G22    30.05F
REDWOOD FALLS  SUNNY     75  43  31 SE17      30.07F
OLIVIA         SUNNY     70  41  35 SE14      30.08F
PIPESTONE      MOSUNNY   75  45  33 S13G26    30.05F
WINDOM         SUNNY     73  43  33 SE10G18   30.09F
WORTHINGTON    MOSUNNY   73  45  35 S14G21    30.08S
JACKSON        SUNNY     73  45  35 SE13G22   30.11F
TRACY          SUNNY     76  45  33 S13G20    30.07F
SLAYTON        PTSUNNY   75  42  30 S16       30.08F
$$
MNZ065>067-074>077-082>085-091>093-012300-
   South Central Minnesota

CITY           SKY/WX    TMP DP  RH WIND       PRES   REMARKS
MANKATO        MOSUNNY   72  39  30 S9G24     30.13F
NEW ULM        SUNNY     72  43  35 SE10      30.10F
FAIRMONT       FAIR      72  39  30 SE16      30.11F
GLENCOE        MOSUNNY   73  43  34 SE7       30.12F
FARIBAULT      MOSUNNY   72  37  28 E10G16    30.16S
OWATONNA       MOSUNNY   70  34  26 SE9       30.16S
WASECA         MOSUNNY   70  37  30 E7        30.16F
ALBERT LEA     MOSUNNY   72  32  23 SE8       30.15
$$
MNZ078>079-086>088-094>096-012300-
   Southeast Minnesota

CITY           SKY/WX    TMP DP  RH WIND       PRES   REMARKS
ROCHESTER      SUNNY     67  42  40 SE13      30.17F
RED WING       SUNNY     70  37  30 SE8       30.16S
STANTON        MOSUNNY   69  36  29 E6        30.15F
DODGE CENTER   SUNNY     70  36  28 SE10G16   30.16F
WINONA         SUNNY     70  43  37 SE8       30.17F
AUSTIN         MOSUNNY   64  39  39 SE7       30.15F
PRESTON        SUNNY     66  38  36 SE9       30.18F
$$
ABBREVIATIONS USED IN REMARKS
   TC - TEMPERATURES IN CELSIUS
  WCI - WIND CHILL INDEX
   HX - HEAT INDEX
  VSB - VISIBILITY
$$



USA.gov is the U.S. government's official web portal to all federal, state and local government web resources and services.